Location: ???????
(41.3033°N, 22.6400°E)
Time: 04:53:07
(UTC+00:00)

Daily predictions for brighter satellites

Satellite Brightness Start Highest point End
(mag) Time Altitude Azimuth Time Altitude Azimuth Time Altitude Azimuth
SJ 16-02 4.0 02:36:30 10° SE 02:39:24 17° E 02:42:18 10° NE
Cosmos 1634 Rocket 4.1 02:50:07 67° SSE 02:50:07 67° SSE 02:55:27 10° S
ATLAS 5 CENTAUR R/B 3.3 02:59:51 25° ENE 02:59:51 25° ENE 03:01:55 10° NE
CENTAUR R/B 4.2 03:11:58 21° N 03:11:58 21° N 03:15:52 10° NNE
Cosmos 1354 Rocket 4.0 03:13:19 71° NNE 03:13:19 71° NNE 03:18:03 10° NNE
BREEZE-M DEB 4.4 03:12:30 28° SE 03:12:43 29° SE 03:17:24 10° ENE
DELTA 2 R/B (1) 3.4 03:19:03 73° SSW 03:19:21 76° S 03:24:53 10° E
SL-19 R/B 4.4 03:14:39 10° SSE 03:20:11 72° ENE 03:23:35 25° N
MOS 1-B Rocket 3.8 03:22:53 10° SSE 03:29:03 87° WSW 03:32:38 24° NNW
DNEPR-1 R/B 4.3 03:30:26 51° SW 03:30:26 51° SW 03:36:00 10° SSE
Cosmos 1328 Rocket 3.8 03:38:55 52° SSW 03:38:55 52° SSW 03:42:22 10° S
Meteor 1-27 Rocket 4.2 03:35:58 10° N 03:41:37 61° ENE 03:47:21 10° SSE
Cosmos 1833 4.3 03:40:57 48° WNW 03:41:56 54° WSW 03:47:29 10° S
ATLAS 3B R/B 2.6 03:36:08 10° SSW 03:42:36 81° ESE 03:49:25 10° NE
Meteor 2-6 Rocket 4.1 03:41:55 45° NW 03:43:13 56° W 03:48:30 10° S
Cosmos 783 Rocket 4.3 03:44:52 36° NNW 03:46:58 74° WSW 03:52:09 10° S
Cosmos 2297 Rocket 4.3 03:43:31 10° N 03:47:55 23° NE 03:52:18 10° ESE
ADEOS 4.4 03:43:06 10° NNE 03:48:13 53° E 03:53:18 10° S
Cosmos 2369 Rocket 3.9 03:51:56 16° NNW 03:51:56 16° NNW 03:53:33 10° N
Cosmos 1777 Rocket 3.9 03:49:00 10° SSW 03:54:11 71° WNW 03:59:27 10° NNE
Cosmos 773 Rocket 3.9 03:51:56 29° NNW 03:54:34 70° WSW 03:59:41 10° S
CZ-2C R/B 2.5 03:49:39 10° S 03:55:06 76° WSW 04:00:25 10° NNW
Landsat 5 3.6 03:51:39 10° SSE 03:56:09 83° ENE 04:00:07 13° N
COSMO-SKYMED 1 2.4 03:53:08 10° S 03:57:27 70° WSW 03:59:58 24° NNW
Cosmos 1340 Rocket 2.8 03:54:05 10° S 03:58:01 80° E 04:02:03 10° NNE
SL-8 R/B 4.3 03:58:05 35° WSW 03:59:08 40° SW 04:03:35 10° SSE
Cosmos 158 Rocket 4.5 03:57:04 10° NNW 04:02:10 60° ENE 04:07:24 10° SSE
SL-27 R/B 2.7 04:02:53 47° WSW 04:02:53 47° WSW 04:06:08 10° S
Cosmos 1408 Rocket 3.6 03:58:54 10° SSW 04:03:05 51° W 04:07:17 10° N
SJ-12 4.3 04:02:46 10° N 04:06:41 41° WNW 04:10:33 10° SW
Lacrosse 5 3.6 04:03:23 10° S 04:07:57 34° SE 04:12:33 10° ENE
CZ-4B R/B 3.9 04:05:44 10° NNE 04:09:10 42° E 04:12:38 10° S
Meteor 2-15 4.4 04:04:19 10° NNW 04:10:14 56° W 04:16:07 10° S
Cosmos 2279 Rocket 4.4 04:06:26 14° NNW 04:11:10 37° W 04:16:45 10° SSW
USA 32 4.5 04:06:44 10° N 04:11:57 64° E 04:17:09 10° SSE
Envisat 3.3 04:08:26 10° N 04:13:15 43° WNW 04:18:01 10° SW
BREEZE-M DEB (TANK) 3.5 04:00:45 10° WSW 04:14:57 74° NNW 04:18:40 10° NE
USA 215 3.8 04:08:47 10° ESE 04:15:04 52° NNE 04:20:33 14° NW
Cosmos 1743 Rocket 3.4 04:10:54 10° SSW 04:15:16 74° W 04:19:38 10° N
Meteor 1-31 Rocket 3.1 04:12:28 10° N 04:16:12 43° WNW 04:19:54 10° SW
SJ 16-02 1.7 04:13:30 10° SW 04:17:37 40° WNW 04:21:45 10° N
Nadezhda 4 Rocket 4.0 04:12:07 10° SSW 04:18:12 61° W 04:24:24 10° N
CZ-2C R/B 3.3 04:13:16 10° NNE 04:18:16 71° ESE 04:23:30 10° S
Cosmos 2227 Rocket 3.9 04:19:33 10° N 04:24:29 30° NE 04:29:23 10° ESE
IRAS Rocket 4.3 04:19:20 10° SSE 04:24:49 81° ENE 04:30:19 10° NNW
Cosmos 1515 Rocket 4.1 04:22:56 18° NW 04:25:38 35° W 04:29:33 10° SSW
SL-4 R/B 1.5 04:24:19 18° WSW 04:26:48 74° NW 04:30:30 10° NE
Lacrosse 4 Rocket 4.0 04:25:40 10° N 04:28:34 17° NE 04:31:27 10° E
Cosmos 1428 Rocket 4.5 04:27:07 10° S 04:33:15 88° E 04:39:24 10° N
Cosmos 1939 Rocket 3.3 04:29:52 10° NNE 04:33:45 63° E 04:37:33 10° S
Cosmos 2228 Rocket 3.1 04:30:20 10° N 04:34:52 84° W 04:39:25 10° S
Okean 1 3.6 04:34:02 10° N 04:37:59 68° E 04:41:54 10° SSE
DMSP B5D2-2 4.0 04:33:42 10° S 04:38:54 75° WSW 04:44:07 10° NNW
Cosmos 1092 Rocket 4.0 04:32:50 10° SSW 04:39:05 73° W 04:45:26 10° N
Sich 1 2.9 04:36:26 10° S 04:40:43 81° W 04:44:59 10° N
Meteor 1-20 Rocket 4.2 04:35:44 10° SSW 04:41:15 63° WNW 04:46:56 10° N
Cosmos 990 Rocket 4.2 04:36:11 10° SSW 04:41:25 79° ESE 04:46:41 10° NNE
NOAA 11 4.3 04:36:21 10° N 04:41:44 57° WNW 04:47:04 10° SSW
Cosmos 1602 3.8 04:38:14 10° SSW 04:41:57 52° W 04:45:41 10° N
Cosmos 1500 Rocket 4.2 04:37:53 10° SW 04:41:59 35° WNW 04:46:06 10° N
ATLAS 5 CENTAUR R/B 2.8 04:41:25 17° WNW 04:42:51 20° NW 04:46:04 10° N
Meteor PRIRODA 3.7 04:41:07 10° N 04:44:40 53° WNW 04:48:12 10° SSW
GENESIS II 4.3 04:42:32 10° NNW 04:46:26 84° ENE 04:50:24 10° SE
Cosmos 1500 3.1 04:45:56 10° SSW 04:49:43 68° W 04:53:30 10° N
COSMOS 2487 3.2 04:47:51 13° NW 04:50:19 30° WSW 04:53:17 10° SSW
Cosmos 1697 Rocket 4.1 04:46:02 10° S 04:51:18 43° ESE 04:56:36 10° NE
H-2A R/B 2.0 04:48:48 10° SSE 04:53:05 82° WSW 04:57:31 10° NNW
Cosmos 1805 Rocket 3.9 04:50:28 10° SSW 04:54:38 43° WNW 04:58:48 10° N
Cosmos 1707 Rocket 3.7 04:53:19 10° N 04:57:48 82° E 05:02:15 10° S
Meteor 1-19 Rocket 4.1 04:52:21 10° NNW 04:57:52 72° W 05:03:14 10° S
Meteor 2-14 Rocket 4.4 04:51:59 10° SSW 04:58:05 70° W 05:04:14 10° N
Cosmos 44 4.0 04:55:13 10° SSW 05:00:34 68° ESE 05:05:47 10° NE
Cosmos 2219 3.8 04:58:15 10° NNW 05:03:51 59° ENE 05:09:27 10° SE
DELTA 2 R/B (1) 4.1 05:00:13 10° W 05:05:35 52° SSW 05:10:57 10° ESE
PSLV R/B 4.0 05:06:27 10° NNE 05:10:28 82° ESE 05:14:31 10° S
Cosmos 1862 Rocket 4.0 05:07:03 10° N 05:11:21 66° E 05:15:40 10° SSE
CZ-3 R/B 3.5 05:06:52 10° SW 05:14:15 22° S 05:17:58 10° SE
BREEZE-M DEB (TANK) 4.3 05:08:35 10° WNW 05:17:22 40° SW 05:20:33 10° SSE
